| time (UTC) | temp F | wind direction | speed knots | gust knots | rain 1hr in | rain 24hr in | rain mn in | humidity % | barometer mb |
| 20260507000043 | 66 | 121 | 0.0 | 0.9 | 0.00 | 0.13 | 0.13 | 74 | 1008.5 |
| 20260506234554 | 66 | 121 | 0.0 | 0.9 | 0.00 | 0.13 | 0.13 | 75 | 1008.5 |
| 20260506233044 | 66 | 0 | 0.0 | 3.5 | 0.00 | 0.13 | 0.13 | 76 | 1008.4 |
| 20260506231538 | 67 | 320 | 0.0 | 3.5 | 0.00 | 0.13 | 0.13 | 76 | 1008.5 |
| 20260506230039 | 67 | 98 | 0.0 | 2.6 | 0.00 | 0.13 | 0.13 | 76 | 1008.4 |
| 20260506224537 | 68 | 233 | 0.0 | 6.1 | 0.00 | 0.13 | 0.13 | 76 | 1008.3 |
| 20260506223041 | 68 | 348 | 0.0 | 4.3 | 0.00 | 0.13 | 0.13 | 76 | 1007.9 |
| 20260506221551 | 68 | 0 | 0.0 | 1.7 | 0.00 | 0.13 | 0.13 | 76 | 1008.3 |
| 20260506220045 | 68 | 346 | 0.0 | 4.3 | 0.00 | 0.13 | 0.13 | 76 | 1008.2 |
| 20260506214539 | 67 | 141 | 0.0 | 6.1 | 0.00 | 0.13 | 0.13 | 75 | 1008.1 |
| 20260506213043 | 66 | 301 | 0.0 | 2.6 | 0.00 | 0.13 | 0.13 | 75 | 1007.9 |
| 20260506211544 | 66 | 274 | 0.0 | 2.6 | 0.00 | 0.13 | 0.13 | 75 | 1007.9 |
| 20260506210044 | 67 | 162 | 0.9 | 5.2 | 0.00 | 0.13 | 0.13 | 75 | 1007.9 |
| 20260506204539 | 67 | 214 | 0.9 | 6.1 | 0.00 | 0.13 | 0.13 | 74 | 1007.7 |
| 20260506203040 | 65 | 98 | 0.9 | 3.5 | 0.00 | 0.13 | 0.13 | 72 | 1007.6 |
| 20260506201540 | 64 | 20 | 1.7 | 4.3 | 0.00 | 0.13 | 0.13 | 71 | 1007.7 |
| 20260506200037 | 64 | 18 | 0.0 | 3.5 | 0.00 | 0.13 | 0.13 | 68 | 1007.8 |
| 20260506194544 | 64 | 42 | 0.9 | 3.5 | 0.00 | 0.13 | 0.13 | 66 | 1007.8 |
| 20260506193048 | 63 | 281 | 0.9 | 4.3 | 0.00 | 0.13 | 0.13 | 65 | 1008.1 |
| 20260506191539 | 63 | 302 | 0.9 | 5.2 | 0.00 | 0.13 | 0.13 | 61 | 1008.2 |
| 20260506190038 | 62 | 288 | 0.9 | 3.5 | 0.00 | 0.13 | 0.13 | 57 | 1008.3 |
| 20260506184539 | 63 | 330 | 0.9 | 5.2 | 0.00 | 0.13 | 0.13 | 63 | 1008.4 |
| 20260506183040 | 63 | 174 | 0.9 | 7.8 | 0.00 | 0.13 | 0.13 | 64 | 1008.3 |
| 20260506181548 | 62 | 234 | 0.0 | 2.6 | 0.00 | 0.13 | 0.13 | 63 | 1008.4 |
| 20260506180038 | 62 | 0 | 1.7 | 4.3 | 0.00 | 0.13 | 0.13 | 61 | 1008.6 |
| 20260506174538 | 63 | 184 | 1.7 | 7.8 | 0.01 | 0.13 | 0.13 | 62 | 1008.7 |
| 20260506173102 | 63 | 165 | 0.9 | 7.8 | 0.01 | 0.13 | 0.13 | 61 | 1009.0 |
| 20260506171543 | 64 | 119 | 0.9 | 4.3 | 0.02 | 0.13 | 0.13 | 61 | 1009.0 |
| 20260506170056 | 64 | 143 | 0.9 | 5.2 | 0.05 | 0.13 | 0.13 | 57 | 1008.7 |
| 20260506164537 | 64 | 126 | 0.9 | 5.2 | 0.06 | 0.12 | 0.12 | 50 | 1009.1 |
| 20260506163048 | 63 | 153 | 0.9 | 2.6 | 0.08 | 0.12 | 0.12 | 51 | 1009.0 |
| 20260506161544 | 62 | 138 | 0.9 | 5.2 | 0.09 | 0.11 | 0.11 | 54 | 1009.9 |
| 20260506160043 | 62 | 108 | 0.0 | 2.6 | 0.07 | 0.08 | 0.08 | 60 | 1010.2 |
| 20260506154600 | 62 | 300 | 0.0 | 2.6 | 0.06 | 0.06 | 0.06 | 67 | 1010.2 |
| 20260506153037 | 64 | 158 | 0.9 | 5.2 | 0.04 | 0.04 | 0.04 | 73 | 1010.4 |
| 20260506151537 | 64 | 134 | 0.0 | 2.6 | 0.02 | 0.02 | 0.02 | 74 | 1010.2 |
| 20260506150037 | 64 | 149 | 0.0 | 3.5 | 0.01 | 0.01 | 0.01 | 76 | 1010.0 |
| 20260506144544 | 65 | 68 | 0.9 | 5.2 | 0.00 | 0.00 | 0.00 | 76 | 1010.2 |
| 20260506143038 | 66 | 83 | 2.6 | 7.8 | 0.00 | 0.00 | 0.00 | 73 | 1010.3 |
| 20260506141537 | 68 | 289 | 1.7 | 6.1 | 0.00 | 0.00 | 0.00 | 71 | 1010.2 |
| 20260506140037 | 69 | 126 | 2.6 | 7.8 | 0.00 | 0.00 | 0.00 | 71 | 1009.9 |
| 20260506134535 | 67 | 187 | 2.6 | 6.1 | 0.00 | 0.00 | 0.00 | 73 | 1010.0 |
| 20260506133054 | 67 | 191 | 1.7 | 6.1 | 0.00 | 0.00 | 0.00 | 74 | 1010.0 |
| 20260506131539 | 67 | 140 | 0.9 | 4.3 | 0.00 | 0.00 | 0.00 | 74 | 1010.0 |
| 20260506130040 | 67 | 148 | 1.7 | 4.3 | 0.00 | 0.00 | 0.00 | 73 | 1010.2 |
| 20260506124536 | 66 | 25 | 1.7 | 7.8 | 0.00 | 0.00 | 0.00 | 75 | 1010.1 |
| 20260506123036 | 65 | 148 | 0.9 | 3.5 | 0.00 | 0.00 | 0.00 | 75 | 1010.1 |
| 20260506121540 | 65 | 157 | 0.9 | 5.2 | 0.00 | 0.00 | 0.00 | 75 | 1009.9 |
| 20260506120039 | 64 | 246 | 1.7 | 7.0 | 0.00 | 0.00 | 0.00 | 76 | 1010.1 |
| 20260506114540 | 64 | 135 | 1.7 | 6.1 | 0.00 | 0.00 | 0.00 | 76 | 1010.2 |
| 20260506113037 | 64 | 174 | 1.7 | 9.6 | 0.00 | 0.00 | 0.00 | 76 | 1010.2 |
| 20260506111536 | 64 | 190 | 1.7 | 7.0 | 0.00 | 0.00 | 0.00 | 76 | 1010.2 |
| 20260506110044 | 64 | 159 | 1.7 | 8.7 | 0.00 | 0.00 | 0.00 | 76 | 1010.1 |
| 20260506104605 | 64 | 123 | 1.7 | 7.0 | 0.00 | 0.00 | 0.00 | 76 | 1009.9 |
| 20260506103041 | 64 | 198 | 1.7 | 7.8 | 0.00 | 0.00 | 0.00 | 76 | 1009.8 |
| 20260506101541 | 63 | 206 | 1.7 | 7.0 | 0.00 | 0.00 | 0.00 | 76 | 1009.8 |
| 20260506100042 | 63 | 185 | 1.7 | 4.3 | 0.00 | 0.00 | 0.00 | 76 | 1009.9 |
| 20260506094538 | 64 | 196 | 0.9 | 8.7 | 0.00 | 0.00 | 0.00 | 76 | 1009.8 |
| 20260506093040 | 64 | 27 | 1.7 | 7.8 | 0.00 | 0.00 | 0.00 | 76 | 1009.7 |
| 20260506091539 | 64 | 271 | 1.7 | 5.2 | 0.00 | 0.00 | 0.00 | 76 | 1009.9 |
| 20260506090044 | 64 | 162 | 1.7 | 6.1 | 0.00 | 0.00 | 0.00 | 76 | 1009.9 |
| 20260506084538 | 64 | 120 | 1.7 | 4.3 | 0.00 | 0.00 | 0.00 | 76 | 1009.9 |
| 20260506083041 | 64 | 6 | 1.7 | 6.1 | 0.00 | 0.00 | 0.00 | 76 | 1010.0 |
| 20260506081542 | 64 | 111 | 1.7 | 5.2 | 0.00 | 0.00 | 0.00 | 76 | 1010.0 |
| 20260506073038 | 65 | 205 | 1.7 | 5.2 | 0.00 | 0.00 | 0.00 | 76 | 1010.0 |
| 20260506071537 | 65 | 90 | 0.9 | 4.3 | 0.00 | 0.00 | 0.00 | 76 | 1010.1 |
| 20260506061537 | 66 | 110 | 1.7 | 6.1 | 0.00 | 0.00 | 0.00 | 74 | 1010.6 |
| 20260506044538 | 66 | 146 | 0.9 | 6.1 | 0.00 | 0.00 | 0.00 | 70 | 1011.2 |
| 20260506043047 | 67 | 129 | 0.9 | 4.3 | 0.00 | 0.00 | 0.00 | 69 | 1011.1 |
| 20260506041544 | 67 | 179 | 0.9 | 4.3 | 0.00 | 0.00 | 0.00 | 68 | 1011.0 |
| 20260506040047 | 67 | 204 | 0.9 | 4.3 | 0.00 | 0.00 | 0.00 | 67 | 1011.0 |
| 20260506034537 | 68 | 117 | 1.7 | 4.3 | 0.00 | 0.00 | 0.00 | 66 | 1010.9 |
| 20260506033036 | 68 | 159 | 1.7 | 6.1 | 0.00 | 0.00 | 0.00 | 65 | 1010.8 |
| 20260506031541 | 68 | 127 | 0.9 | 5.2 | 0.00 | 0.00 | 0.00 | 65 | 1010.7 |
| 20260506030040 | 68 | 221 | 1.7 | 5.2 | 0.00 | 0.00 | 0.00 | 64 | 1010.9 |
| 20260506024544 | 68 | 301 | 1.7 | 5.2 | 0.00 | 0.00 | 0.00 | 64 | 1010.9 |
| 20260506023036 | 69 | 173 | 1.7 | 7.8 | 0.00 | 0.00 | 0.00 | 63 | 1011.0 |
| 20260506021549 | 70 | 193 | 1.7 | 7.8 | 0.00 | 0.00 | 0.00 | 61 | 1010.9 |
| 20260506020038 | 70 | 119 | 2.6 | 9.6 | 0.00 | 0.00 | 0.00 | 59 | 1010.9 |
| 20260506014537 | 71 | 217 | 0.9 | 6.1 | 0.00 | 0.00 | 0.00 | 56 | 1010.9 |
| 20260506013041 | 72 | 132 | 1.7 | 6.1 | 0.00 | 0.00 | 0.00 | 52 | 1010.7 |
| 20260506011545 | 73 | 170 | 1.7 | 7.0 | 0.00 | 0.00 | 0.00 | 50 | 1010.6 |
| 20260506010047 | 73 | 178 | 1.7 | 5.2 | 0.00 | 0.00 | 0.00 | 48 | 1010.4 |
| 20260506004538 | 74 | 169 | 1.7 | 6.1 | 0.00 | 0.00 | 0.00 | 47 | 1010.3 |
| 20260506003037 | 74 | 26 | 1.7 | 4.3 | 0.00 | 0.00 | 0.00 | 47 | 1010.1 |
| 20260506001536 | 74 | 219 | 1.7 | 5.2 | 0.00 | 0.00 | 0.00 | 48 | 1010.0 |